Terminal Aerodrome Forecast
Issued by NWS Shreveport, LA

Home | Current Version | Previous Version | Text Only | Print | Product List | Glossary On
Versions: 1 2 3 4 5 6 7 8 9 10 11 12 13 14 15 16
000
FTUS44 KSHV 121700 RRA
TAFTXK
TAF
KTXK 121742Z 1218/1318 VRB05KT P6SM FEW045
     FM130100 17004KT P6SM SKC
     FM131400 24005KT P6SM SKC=

USA.gov is the U.S. government's official web portal to all federal, state and local government web resources and services.